Weather History for FAGG - February, 2012

Change the Weather History Date:

Monday, February 27, 2012

  Actual Average Record
Temperature  
Mean Temperature 68 °F -  
Max Temperature 80 °F 73 °F 86 °F (2014)
Min Temperature 57 °F 57 °F 57 °F (1997)
Cooling Degree Days 4    
Growing Degree Days 18 (Base 50)    
Moisture  
Dew Point 63 °F    
Average Humidity 82    
Maximum Humidity 100    
Minimum Humidity 52    
Precipitation  
Precipitation 0.00 in - - ()
Sea Level Pressure  
Sea Level Pressure 29.88 in    
Wind  
Wind Speed 5 mph ()    
Max Wind Speed 13 mph    
Max Gust Speed -    
Visibility 7.4 miles    
Events      
Averages and records for this station are not official NWS values.
T = Trace of Precipitation, MM = Missing Value Source: Averaged Metar Reports

Daily Weather History Graph

Daily Weather History Graph

Search for Another Location

Airport or City:

Trip Planner

Search our weather history database for the weather conditions in past years. The results will help you decide how hot, cold, wet, or windy it might be!

Date:

Astronomy

Feb. 27, 2012 Rise Set
Actual Time 6:15 AM SAST 7:10 PM SAST
Civil Twilight 5:50 AM SAST 7:35 PM SAST
Nautical Twilight 5:20 AM SAST 8:05 PM SAST
Astronomical Twilight 4:48 AM SAST 8:36 PM SAST
Moon 11:15 AM SAST (2/27) 9:55 PM SAST (2/27)
Length of Visible Light 13h 45m
Length of Day
12h 54m
Waxing Crescent, 26% of the Moon is Illuminated
Feb 27
Waxing Crescent
Mar 1
First Quarter
Mar 8
Full
Mar 15
Last Quarter
Mar 22
New

Hourly Weather History & Observations

Time (SAST) Temp. Heat Index Dew Point Humidity Pressure Visibility Wind Dir Wind Speed Gust Speed Precip Events Conditions
12:00 AM 60.8 °F - 59.0 °F 94% 29.98 in - NW 4.6 mph - N/A   Clear
1:00 AM 62.6 °F - 60.8 °F 94% 29.98 in 6.2 mi North 3.5 mph - N/A   Mostly Cloudy
2:00 AM 62 °F - 61 °F 94% 29.97 in 12 mi 3.5 mph - -  
2:00 AM 62.6 °F - 60.8 °F 94% 29.95 in 6.2 mi North 3.5 mph - N/A   Scattered Clouds
3:00 AM 62.6 °F - 60.8 °F 94% 29.95 in 6.2 mi North 2.3 mph - N/A   Mostly Cloudy
4:00 AM 62.6 °F - 60.8 °F 94% 29.92 in 6.2 mi NE 2.3 mph - N/A   Partly Cloudy
5:00 AM 60 °F - 59 °F 97% 29.92 in 12 mi NNE 4.6 mph - -  
5:00 AM 60.8 °F - 59.0 °F 94% 29.92 in - NNE 3.5 mph - N/A   Clear
6:00 AM 57.2 °F - 57.2 °F 100% 29.89 in - NE 3.5 mph - N/A   Clear
7:00 AM 59.0 °F - 59.0 °F 100% 29.92 in - NW 3.5 mph - N/A   Clear
7:32 AM 62.6 °F - 60.8 °F 94% 29.92 in 6.2 mi NW 2.3 mph - N/A   Partly Cloudy
8:00 AM 64 °F - 63 °F 94% 29.91 in 9 mi 2.3 mph - -   Haze
8:00 AM 64.4 °F - 62.6 °F 94% 29.92 in 6.2 mi Variable 2.3 mph - N/A   Partly Cloudy
8:22 AM 68.0 °F - 64.4 °F 88% 29.92 in 6.2 mi East 5.8 mph - N/A   Partly Cloudy
9:00 AM 71.6 °F - 64.4 °F 78% 29.92 in 6.2 mi ESE 5.8 mph - N/A   Partly Cloudy
10:00 AM 73.4 °F - 60.8 °F 65% 29.89 in 6.2 mi SE 11.5 mph - N/A   Partly Cloudy
11:00 AM 75 °F - 62 °F 55% 29.88 in 12 mi ESE 12.7 mph - -   Scattered Clouds
11:00 AM 75.2 °F - 60.8 °F 61% 29.89 in 6.2 mi East 10.4 mph - N/A   Partly Cloudy
12:00 PM 75.2 °F - 64.4 °F 69% 29.89 in 6.2 mi ESE 9.2 mph - N/A   Partly Cloudy
1:00 PM 75.2 °F - 62.6 °F 65% 29.86 in 6.2 mi SE 11.5 mph - N/A   Partly Cloudy
2:00 PM 78 °F - 64 °F 52% 29.83 in 19 mi ESE 8.1 mph - -   Scattered Clouds
2:00 PM 78.8 °F - 64.4 °F 61% 29.86 in 6.2 mi ESE 8.1 mph - N/A   Partly Cloudy
3:00 PM 80.6 °F 82.7 °F 66.2 °F 61% 29.83 in - SE 9.2 mph - N/A   Clear
4:00 PM 77.0 °F - 64.4 °F 65% 29.80 in - SE 9.2 mph - N/A   Clear
5:00 PM 77 °F - 64 °F 55% 29.78 in 6 mi ESE 8.1 mph - -   Smoke
5:00 PM 77.0 °F - 64.4 °F 65% 29.80 in - ESE 6.9 mph - N/A   Clear
6:00 PM 73.4 °F - 64.4 °F 73% 29.80 in - East 10.4 mph - N/A   Clear
7:00 PM 69.8 °F - 66.2 °F 88% 29.77 in - East 8.1 mph - N/A   Clear
8:00 PM 67 °F - 66 °F 95% 29.78 in 4 mi East 4.6 mph - -   Mist
8:00 PM 68.0 °F - 66.2 °F 94% 29.77 in 4.3 mi ENE 4.6 mph - N/A   Clear
10:00 PM 64.4 °F - 64.4 °F 100% 29.80 in 4.3 mi Variable 2.3 mph - N/A   Unknown
11:00 PM 62.6 °F - 62.6 °F 100% 29.80 in - NW 4.6 mph - N/A   Clear